UAE809 OMDB-OEMA

Flight info

Callsign UAE809
Flight time N/A
Altitude 30000
Route KUTLI L519 ATUDO DCT GOLGU DCT RIBOT DCT MEVDO DCT DANOM DCT ASMIS DCT ELONU
Aircraft B77W/H-SDE1E2E3FGHIJ2J3J4J5M1RWXY/LB1D1

Departure

Time 2026-04-25 11:23
Airport Dubai International Airport (OMDB)

Arrival

Time N/A
Airport Prince Mohammad Bin Abdulaziz Airport (OEMA)
Time Latitude Longitude Altitude Speed Heading
2026-04-25 10:53 25.24264 55.37521 26 ft 0 kts 211°
2026-04-25 11:14 25.24279 55.37531 26 ft 4 kts 211°
2026-04-25 11:14 25.24301 55.37547 25 ft 4 kts 217°
2026-04-25 11:14 25.24322 55.37564 26 ft 4 kts 198°
2026-04-25 11:14 25.24345 55.37565 25 ft 4 kts 157°
2026-04-25 11:15 25.24361 55.37546 27 ft 4 kts 113°
2026-04-25 11:15 25.24368 55.37530 26 ft 1 kts 122°
2026-04-25 11:15 25.24369 55.37528 26 ft 0 kts 122°
2026-04-25 11:20 25.24361 55.37543 27 ft 6 kts 122°
2026-04-25 11:20 25.24340 55.37581 24 ft 6 kts 122°
2026-04-25 11:20 25.24317 55.37621 27 ft 7 kts 122°
2026-04-25 11:21 25.24287 55.37674 27 ft 10 kts 122°
2026-04-25 11:21 25.24269 55.37754 27 ft 12 kts 72°
2026-04-25 11:21 25.24335 55.37824 27 ft 15 kts 34°
2026-04-25 11:21 25.24429 55.37895 27 ft 18 kts 34°
2026-04-25 11:22 25.24539 55.37979 27 ft 20 kts 34°
2026-04-25 11:22 25.24614 55.38035 27 ft 20 kts 34°
2026-04-25 11:22 25.24734 55.38103 27 ft 12 kts
2026-04-25 11:22 25.24794 55.38047 27 ft 15 kts 301°
2026-04-25 11:23 25.24985 55.37706 27 ft 96 kts 302°
2026-04-25 11:23 25.25484 55.36817 29 ft 172 kts 304°
2026-04-25 11:23 25.26188 55.35586 425 ft 197 kts 302°
2026-04-25 11:23 25.26890 55.34285 1277 ft 196 kts 301°
2026-04-25 11:24 25.27591 55.33006 2042 ft 197 kts 302°
2026-04-25 11:24 25.28312 55.31710 2688 ft 204 kts 302°
2026-04-25 11:24 25.28872 55.30187 2888 ft 231 kts 273°
2026-04-25 11:24 25.28435 55.28405 3155 ft 261 kts 236°
2026-04-25 11:25 25.27056 55.27021 3756 ft 271 kts 217°
2026-04-25 11:25 25.25511 55.25813 4699 ft 273 kts 217°
2026-04-25 11:25 25.23952 55.24593 5547 ft 275 kts 217°
2026-04-25 11:25 25.22404 55.23368 6483 ft 274 kts 217°
2026-04-25 11:26 25.20855 55.22130 7385 ft 272 kts 217°
2026-04-25 11:26 25.19331 55.20901 8312 ft 272 kts 217°
2026-04-25 11:26 25.17787 55.19645 9034 ft 279 kts 217°
2026-04-25 11:26 25.16217 55.18361 9881 ft 279 kts 217°
2026-04-25 11:27 25.14642 55.17069 10580 ft 288 kts 217°
2026-04-25 11:27 25.12988 55.15709 10792 ft 314 kts 217°
2026-04-25 11:27 25.11163 55.14207 11004 ft 341 kts 217°
2026-04-25 11:27 25.09844 55.13120 11125 ft 358 kts 217°
2026-04-25 11:28 25.07150 55.10896 12027 ft 370 kts 216°
2026-04-25 11:28 25.05069 55.09178 12854 ft 375 kts 216°
2026-04-25 11:28 25.02956 55.07436 13600 ft 384 kts 216°
2026-04-25 11:28 25.00811 55.05667 14345 ft 382 kts 216°
2026-04-25 11:29 24.98673 55.03905 14868 ft 385 kts 216°
2026-04-25 11:29 24.96511 55.02123 14905 ft 392 kts 217°
2026-04-25 11:29 24.94326 55.00323 14922 ft 392 kts 217°
2026-04-25 11:29 24.92140 54.98522 14913 ft 392 kts 216°
2026-04-25 11:30 24.89956 54.96726 14904 ft 391 kts 216°
2026-04-25 11:30 24.87780 54.94937 14902 ft 390 kts 216°
2026-04-25 11:30 24.85548 54.93258 15013 ft 390 kts 210°
2026-04-25 11:30 24.83143 54.91827 15705 ft 394 kts 208°
2026-04-25 11:31 24.80716 54.90403 16531 ft 396 kts 208°
2026-04-25 11:31 24.78286 54.88960 17357 ft 398 kts 209°
2026-04-25 11:31 24.75834 54.87497 18076 ft 403 kts 209°
2026-04-25 11:31 24.73360 54.86019 18703 ft 408 kts 209°
2026-04-25 11:32 24.70848 54.84521 19341 ft 412 kts 209°
2026-04-25 11:32 24.68318 54.83011 19986 ft 415 kts 210°
2026-04-25 11:32 24.65793 54.81433 20644 ft 419 kts 211°
2026-04-25 11:32 24.63269 54.79806 21283 ft 423 kts 212°
2026-04-25 11:33 24.60724 54.78158 21916 ft 426 kts 212°
2026-04-25 11:33 24.58156 54.76506 22539 ft 430 kts 212°